TimeCEST,TemperatureF,Dew PointF,Humidity,Sea Level PressureIn,VisibilityMPH,Wind Direction,Wind SpeedMPH,Gust SpeedMPH,PrecipitationIn,Events,Conditions,WindDirDegrees,DateUTC
12:00 AM,69.8,62.6,78,30.01,6.2,Calm,Calm,-,N/A,,Scattered Clouds,0,2013-09-24 22:00:00
12:30 AM,68.0,62.6,83,30.01,6.2,Calm,Calm,-,N/A,,Scattered Clouds,0,2013-09-24 22:30:00
1:00 AM,68.0,62.6,83,30.01,6.2,NNE,1.2,-,N/A,,Partly Cloudy,30,2013-09-24 23:00:00
1:30 AM,66.2,62.6,88,29.98,6.2,NNE,2.3,-,N/A,,Partly Cloudy,30,2013-09-24 23:30:00
2:00 AM,66.2,62.6,88,30.01,6.2,NE,1.2,-,N/A,,Partly Cloudy,40,2013-09-25 00:00:00
2:30 AM,64.4,62.6,94,29.98,6.2,Calm,Calm,-,N/A,,Partly Cloudy,0,2013-09-25 00:30:00
3:00 AM,64.4,62.6,94,29.98,6.2,NNE,1.2,-,N/A,,Partly Cloudy,20,2013-09-25 01:00:00
3:30 AM,64.4,60.8,88,29.98,6.2,Calm,Calm,-,N/A,,Partly Cloudy,0,2013-09-25 01:30:00
4:00 AM,62.6,60.8,94,29.98,6.2,NE,1.2,-,N/A,,Partly Cloudy,40,2013-09-25 02:00:00
4:30 AM,62.6,60.8,94,29.98,6.2,NE,2.3,-,N/A,,Partly Cloudy,40,2013-09-25 02:30:00
5:00 AM,62.6,60.8,94,29.98,6.2,NNE,1.2,-,N/A,,Partly Cloudy,20,2013-09-25 03:00:00
5:30 AM,62.6,60.8,94,29.98,6.2,NE,1.2,-,N/A,,Partly Cloudy,40,2013-09-25 03:30:00
6:00 AM,62.6,60.8,94,29.98,6.2,NNE,1.2,-,N/A,,Partly Cloudy,30,2013-09-25 04:00:00
6:30 AM,62.6,60.8,94,29.98,6.2,NNE,1.2,-,N/A,,Partly Cloudy,20,2013-09-25 04:30:00
7:00 AM,60.8,59.0,94,29.98,6.2,Variable,1.2,-,N/A,,Partly Cloudy,0,2013-09-25 05:00:00
7:30 AM,60.8,59.0,94,29.98,6.2,Variable,2.3,-,N/A,,Partly Cloudy,0,2013-09-25 05:30:00
8:00 AM,61,59,91,29.98,19,NNE,1.2,,,,Scattered Clouds,30,2013-09-25 06:00:00
8:00 AM,60.8,59.0,94,29.98,6.2,Calm,Calm,-,N/A,,Partly Cloudy,0,2013-09-25 06:00:00
8:30 AM,62.6,60.8,94,29.98,6.2,ENE,2.3,-,N/A,,Partly Cloudy,60,2013-09-25 06:30:00
9:00 AM,66.2,62.6,88,29.98,6.2,Variable,2.3,-,N/A,,Partly Cloudy,0,2013-09-25 07:00:00
9:30 AM,69.8,64.4,83,29.98,6.2,Variable,1.2,-,N/A,,Partly Cloudy,0,2013-09-25 07:30:00
10:00 AM,73.4,64.4,73,29.98,6.2,Variable,1.2,-,N/A,,Partly Cloudy,0,2013-09-25 08:00:00
10:30 AM,75.2,62.6,65,29.98,6.2,Calm,Calm,-,N/A,,Partly Cloudy,0,2013-09-25 08:30:00
11:00 AM,77.0,62.6,61,29.98,6.2,Calm,Calm,-,N/A,,Partly Cloudy,0,2013-09-25 09:00:00
11:30 AM,78.8,60.8,54,29.98,6.2,Variable,1.2,-,N/A,,Partly Cloudy,0,2013-09-25 09:30:00
12:00 PM,78.8,60.8,54,30.01,6.2,WSW,4.6,-,N/A,,Partly Cloudy,240,2013-09-25 10:00:00
12:30 PM,78.8,62.6,57,29.98,6.2,WSW,6.9,-,N/A,,Partly Cloudy,240,2013-09-25 10:30:00
1:00 PM,78.8,64.4,61,29.98,6.2,WSW,9.2,-,N/A,,Partly Cloudy,240,2013-09-25 11:00:00
1:30 PM,78.8,62.6,57,29.98,6.2,SW,10.4,-,N/A,,Partly Cloudy,230,2013-09-25 11:30:00
2:00 PM,80,61,43,29.99,19,SW,9.2,,,,Scattered Clouds,230,2013-09-25 12:00:00
2:00 PM,78.8,62.6,57,29.98,6.2,SW,9.2,-,N/A,,Partly Cloudy,230,2013-09-25 12:00:00
2:30 PM,78.8,64.4,61,29.98,6.2,SW,9.2,-,N/A,,Partly Cloudy,230,2013-09-25 12:30:00
3:00 PM,78.8,64.4,61,29.98,6.2,SW,10.4,-,N/A,,Partly Cloudy,220,2013-09-25 13:00:00
3:30 PM,78.8,62.6,57,29.95,6.2,SW,11.5,-,N/A,,Partly Cloudy,230,2013-09-25 13:30:00
4:00 PM,78.8,64.4,61,29.95,6.2,WSW,11.5,-,N/A,,Partly Cloudy,240,2013-09-25 14:00:00
4:30 PM,78.8,62.6,57,29.95,6.2,WSW,11.5,-,N/A,,Partly Cloudy,240,2013-09-25 14:30:00
5:00 PM,78.8,62.6,57,29.95,6.2,SW,10.4,-,N/A,,Partly Cloudy,230,2013-09-25 15:00:00
5:30 PM,78.8,62.6,57,29.95,6.2,WSW,9.2,-,N/A,,Partly Cloudy,240,2013-09-25 15:30:00
6:00 PM,77.0,64.4,65,29.95,6.2,SSW,8.1,-,N/A,,Partly Cloudy,210,2013-09-25 16:00:00
6:30 PM,77.0,64.4,65,29.95,6.2,SW,9.2,-,N/A,,Partly Cloudy,220,2013-09-25 16:30:00
7:00 PM,77.0,64.4,65,29.95,6.2,SW,6.9,-,N/A,,Partly Cloudy,220,2013-09-25 17:00:00
7:30 PM,75.2,62.6,65,29.95,6.2,SW,5.8,-,N/A,,Partly Cloudy,220,2013-09-25 17:30:00
8:00 PM,75,63,59,29.97,19,SSW,5.8,,,,Clear,210,2013-09-25 18:00:00
8:00 PM,75.2,64.4,69,29.95,-9999.0,SW,2.3,-,N/A,,Clear,220,2013-09-25 18:00:00
8:30 PM,75.2,64.4,69,29.98,-9999.0,Variable,1.2,-,N/A,,Clear,0,2013-09-25 18:30:00
9:00 PM,75.2,64.4,69,29.98,-9999.0,Calm,Calm,-,N/A,,Clear,0,2013-09-25 19:00:00
9:30 PM,73.4,64.4,73,29.98,-9999.0,SE,1.2,-,N/A,,Clear,140,2013-09-25 19:30:00
10:00 PM,71.6,62.6,73,29.98,-9999.0,SE,2.3,-,N/A,,Clear,130,2013-09-25 20:00:00
10:30 PM,68.0,62.6,83,29.98,-9999.0,Calm,Calm,-,N/A,,Clear,0,2013-09-25 20:30:00
11:00 PM,68.0,62.6,83,29.98,-9999.0,Calm,Calm,-,N/A,,Clear,0,2013-09-25 21:00:00
11:30 PM,66.2,62.6,88,29.98,-9999.0,ENE,2.3,-,N/A,,Clear,70,2013-09-25 21:30:00